Location: Unspecified
(52.4292°N, 19.3359°E)
Time: 13:32:12
(UTC+02:00)

deb Explorer IX - Pass Details

Date: 28 May 2024
Orbit: 510 x 885 km, 38.7° (Epoch: 16 June)

Event Time Altitude Azimuth Distance (km) Brightness Sun altitude
Rises 20:29:24 0° 228° (SW) 3,293 ? 1.8°
Reaches altitude 10° 20:32:54 10° 208° (SSW) 2,286 ? 1.4°
Maximum altitude 20:36:02 16° 172° (S) 1,844 ? 1.0°
Drops below altitude 10° 20:39:00 10° 135° (SE) 2,134 ? 0.6°
Sets 20:42:06 0° 114° (ESE) 2,965 ? 0.3°
